This is the latest recevied weather packets stored in our database for station/object KI5NXU. If no packets are shown the sender has not sent any weather packets the latest 10 day(s).
| Time | Temp. | Humidity | Pressure | Rain* | Wind** | Luminosity | Snow |
|---|---|---|---|---|---|---|---|
| 1787966697 | 33.89° C | 35% | 1015 hPa | 0 mm | - | 0 W/m² | - |
| 1787966396 | 33.89° C | 35% | 1014.8 hPa | 0 mm | - | 0 W/m² | - |
| 1787966091 | 33.89° C | 34% | 1014.9 hPa | 0 mm | - | 0 W/m² | - |
| 1787965789 | 34.44° C | 34% | 1014.7 hPa | 0 mm | - | 0 W/m² | - |
| 1787965485 | 34.44° C | 33% | 1014.6 hPa | 0 mm | - | 2 W/m² | - |
| 1787965184 | 35° C | 33% | 1014.6 hPa | 0 mm | - | 3 W/m² | - |
| 1787964887 | 35° C | 32% | 1014.9 hPa | 0 mm | - | 6 W/m² | - |
| 1787964574 | 35° C | 32% | 1014.5 hPa | 0 mm | - | 10 W/m² | - |
| 1787964269 | 35.56° C | 32% | 1014.5 hPa | 0 mm | - | 13 W/m² | - |
| 1787963968 | 35.56° C | 32% | 1014.7 hPa | 0 mm | - | 17 W/m² | - |
| 1787963663 | 36.11° C | 32% | 1014.5 hPa | 0 mm | - | 23 W/m² | - |
| 1787963358 | 36.67° C | 32% | 1014.6 hPa | 0 mm | - | 27 W/m² | - |
| 1787963053 | 36.67° C | 31% | 1014.3 hPa | 0 mm | - | 33 W/m² | - |
| 1787962753 | 36.67° C | 31% | 1014.3 hPa | 0 mm | - | 37 W/m² | - |
| 1787962452 | 37.22° C | 31% | 1014.4 hPa | 0 mm | - | 42 W/m² | - |
| 1787962151 | 37.22° C | 31% | 1014.4 hPa | 0 mm | - | 52 W/m² | - |
| 1787961845 | 37.22° C | 30% | 1014.4 hPa | 0 mm | - | 58 W/m² | - |
| 1787961543 | 37.78° C | 30% | 1014.4 hPa | 0 mm | - | 66 W/m² | - |
| 1787961243 | 37.78° C | 29% | 1014.3 hPa | 0 mm | - | 80 W/m² | - |
| 1787960943 | 37.78° C | 29% | 1014.3 hPa | 0 mm | - | 91 W/m² | - |
| 1787960638 | 38.33° C | 29% | 1014.5 hPa | 0 mm | - | 108 W/m² | - |
| 1787960336 | 38.33° C | 29% | 1014.5 hPa | 0 mm | - | 126 W/m² | - |
| 1787960032 | 38.33° C | 29% | 1014.4 hPa | 0 mm | - | 139 W/m² | - |
| 1787959726 | 38.89° C | 29% | 1014 hPa | 0 mm | - | 147 W/m² | - |
| 1787959422 | 38.89° C | 29% | 1014.3 hPa | 0 mm | - | 154 W/m² | - |
* Rain latest hour (hover to see other rain measurements)
** Current wind speed in m/s (hover to see current wind gust speed)